Weather History for Coventry, United Kingdom

Change the Weather History Date:

Tuesday, November 13, 2012

  Actual Average Record
Temperature  
Mean Temperature 54 °F -  
Max Temperature 59 °F 46 °F 59 °F (2011)
Min Temperature 48 °F 36 °F 30 °F (1997)
Degree Days  
Heating Degree Days 12    
Growing Degree Days 4 (Base 50)    
Moisture  
Dew Point 49 °F    
Average Humidity 84    
Maximum Humidity 94    
Minimum Humidity 72    
Precipitation  
Precipitation 0.00 in - - ()
Sea Level Pressure  
Sea Level Pressure 30.24 in    
Wind  
Wind Speed 9 mph ()    
Max Wind Speed 16 mph    
Max Gust Speed -    
Visibility 6.2 miles    
Events      
Averages and records for this station are not official NWS values.
T = Trace of Precipitation, MM = Missing Value Source: Averaged Metar Reports

Daily Weather History Graph

Daily Weather History Graph

Search for Another Location

Airport:

Trip Planner

Search our weather history database for the weather conditions in past years. The results will help you decide how hot, cold, wet, or windy it might be!

Date:

Astronomy

Nov. 13, 2012 Rise Set
Actual Time 7:24 AM GMT 4:15 PM GMT
Civil Twilight 6:46 AM GMT 4:53 PM GMT
Nautical Twilight 6:05 AM GMT 5:34 PM GMT
Astronomical Twilight 5:25 AM GMT 6:14 PM GMT
Moon 6:44 AM GMT (11/13) 3:54 PM GMT (11/13)
Length of Visible Light 10h 06m
Length of Day
8h 51m
Waning Crescent, 0% of the Moon is Illuminated
Nov 13
Waning Crescent
Nov 13
New
Nov 20
First Quarter
Nov 28
Full
Dec 6
Last Quarter

Hourly Weather History & Observations

Time (GMT) Temp. Dew Point Humidity Pressure Visibility Wind Dir Wind Speed Gust Speed Precip Events Conditions
12:20 AM 53.6 °F 51.8 °F 94% 30.15 in 6.2 mi SW 11.5 mph - N/A   Partly Cloudy
12:50 AM 53.6 °F 51.8 °F 94% 30.15 in 6.2 mi SW 11.5 mph - N/A   Partly Cloudy
1:20 AM 51.8 °F 50.0 °F 94% 30.15 in - SW 11.5 mph - N/A   Clear
1:50 AM 51.8 °F 50.0 °F 94% 30.15 in - SSW 9.2 mph - N/A   Clear
6:20 AM 48.2 °F 46.4 °F 93% 30.21 in 6.2 mi SSW 8.1 mph - N/A   Partly Cloudy
6:50 AM 50.0 °F 48.2 °F 94% 30.24 in 6.2 mi SW 10.4 mph - N/A   Scattered Clouds
7:20 AM 51.8 °F 48.2 °F 88% 30.24 in 6.2 mi South 6.9 mph - N/A   Scattered Clouds
7:50 AM 51.8 °F 48.2 °F 88% 30.24 in 6.2 mi SSW 8.1 mph - N/A   Scattered Clouds
8:20 AM 50.0 °F 48.2 °F 94% 30.24 in 6.2 mi South 6.9 mph - N/A   Mostly Cloudy
8:50 AM 51.8 °F 48.2 °F 88% 30.24 in 6.2 mi South 6.9 mph - N/A   Mostly Cloudy
9:20 AM 51.8 °F 48.2 °F 88% 30.24 in 6.2 mi South 8.1 mph - N/A   Mostly Cloudy
9:50 AM 53.6 °F 48.2 °F 82% 30.24 in 6.2 mi South 10.4 mph - N/A   Mostly Cloudy
10:20 AM 53.6 °F 50.0 °F 88% 30.24 in 6.2 mi South 11.5 mph - N/A   Mostly Cloudy
10:50 AM 55.4 °F 50.0 °F 82% 30.24 in 6.2 mi South 9.2 mph - N/A   Mostly Cloudy
11:20 AM 55.4 °F 50.0 °F 82% 30.24 in 6.2 mi SSW 9.2 mph - N/A   Mostly Cloudy
11:50 AM 55.4 °F 50.0 °F 82% 30.24 in 6.2 mi SSW 10.4 mph - N/A   Mostly Cloudy
12:20 PM 57.2 °F 50.0 °F 77% 30.24 in 6.2 mi SSW 11.5 mph - N/A   Mostly Cloudy
12:50 PM 57.2 °F 50.0 °F 77% 30.24 in 6.2 mi SSW 11.5 mph - N/A   Mostly Cloudy
1:20 PM 59.0 °F 50.0 °F 72% 30.24 in 6.2 mi SW 16.1 mph - N/A   Mostly Cloudy
1:50 PM 57.2 °F 48.2 °F 72% 30.24 in 6.2 mi SW 16.1 mph - N/A   Mostly Cloudy
2:20 PM 57.2 °F 48.2 °F 72% 30.24 in 6.2 mi SW 11.5 mph - N/A   Mostly Cloudy
2:50 PM 57.2 °F 50.0 °F 77% 30.24 in 6.2 mi SSW 11.5 mph - N/A   Mostly Cloudy
3:20 PM 57.2 °F 50.0 °F 77% 30.24 in 6.2 mi SW 12.7 mph - N/A   Mostly Cloudy
3:50 PM 57.2 °F 50.0 °F 77% 30.24 in 6.2 mi SW 13.8 mph - N/A   Mostly Cloudy
4:20 PM 57.2 °F 50.0 °F 77% 30.24 in 6.2 mi SSW 6.9 mph - N/A   Mostly Cloudy
4:50 PM 55.4 °F 50.0 °F 82% 30.24 in 6.2 mi SSW 9.2 mph - N/A   Mostly Cloudy
5:20 PM 55.4 °F 48.2 °F 77% 30.24 in 6.2 mi SSW 5.8 mph - N/A   Mostly Cloudy
5:50 PM 55.4 °F 50.0 °F 82% 30.27 in 6.2 mi SSW 9.2 mph - N/A   Mostly Cloudy
6:20 PM 55.4 °F 50.0 °F 82% 30.27 in 6.2 mi SSW 11.5 mph - N/A   Mostly Cloudy
6:50 PM 55.4 °F 50.0 °F 82% 30.27 in 6.2 mi SSW 12.7 mph - N/A   Mostly Cloudy
7:20 PM 55.4 °F 50.0 °F 82% 30.27 in 6.2 mi SSW 10.4 mph - N/A   Mostly Cloudy
7:50 PM 53.6 °F 50.0 °F 88% 30.27 in 6.2 mi South 10.4 mph - N/A   Mostly Cloudy
8:20 PM 53.6 °F 50.0 °F 88% 30.27 in 6.2 mi South 9.2 mph - N/A   Mostly Cloudy
8:50 PM 53.6 °F 48.2 °F 82% 30.27 in 6.2 mi South 9.2 mph - N/A   Mostly Cloudy
9:20 PM 53.6 °F 48.2 °F 82% 30.30 in 6.2 mi South 9.2 mph - N/A   Mostly Cloudy
9:50 PM 53.6 °F 50.0 °F 88% 30.30 in 6.2 mi South 8.1 mph - N/A   Mostly Cloudy
10:20 PM 53.6 °F 50.0 °F 88% 30.30 in 6.2 mi South 8.1 mph - N/A   Mostly Cloudy
10:50 PM 53.6 °F 50.0 °F 88% 30.30 in 6.2 mi South 9.2 mph - N/A   Mostly Cloudy
11:20 PM 53.6 °F 50.0 °F 88% 30.30 in 6.2 mi South 9.2 mph - N/A   Mostly Cloudy
11:50 PM 53.6 °F 50.0 °F 88% 30.30 in 6.2 mi South 8.1 mph - N/A   Mostly Cloudy